Kolkata, India

10:40 AM IST on June 26, 2017 (GMT +0530)
Netaji Subhash Chandra Bose International

Weather History for VECC - July, 2013

Change the Weather History Date:

Tuesday, July 9, 2013

  Actual Average Record
Temperature  
Mean Temperature 90 °F -  
Max Temperature 98 °F 89 °F 100 °F (2002)
Min Temperature 81 °F 79 °F 77 °F (2005)
Cooling Degree Days 24    
Growing Degree Days 40 (Base 50)    
Moisture  
Dew Point 79 °F    
Average Humidity 75    
Maximum Humidity 89    
Minimum Humidity 48    
Precipitation  
Precipitation 0.00 in - - ()
Sea Level Pressure  
Sea Level Pressure 29.49 in    
Wind  
Wind Speed 5 mph ()    
Max Wind Speed 10 mph    
Max Gust Speed -    
Visibility 2.5 miles    
Events      
Averages and records for this station are not official NWS values.
T = Trace of Precipitation, MM = Missing Value Source: Averaged Metar Reports

Daily Weather History Graph

Daily Weather History Graph

Search for Another Location

Airport or City:

Trip Planner

Search our weather history database for the weather conditions in past years. The results will help you decide how hot, cold, wet, or windy it might be!

Date:

Astronomy

Jul. 09, 2013 Rise Set
Actual Time 4:57 AM IST 6:24 PM IST
Civil Twilight 4:32 AM IST 6:49 PM IST
Nautical Twilight 4:03 AM IST 7:19 PM IST
Astronomical Twilight 3:32 AM IST 7:50 PM IST
Moon 5:42 AM IST (7/9) 7:00 PM IST (7/9)
Length of Visible Light 14h 16m
Length of Day
13h 26m
New Moon, 1% of the Moon is Illuminated
Jul 9
New Moon
Jul 16
First Quarter
Jul 22
Full
Jul 29
Last Quarter
Aug 7
New

Hourly Weather History & Observations

Time (IST) Temp. Heat Index Dew Point Humidity Pressure Visibility Wind Dir Wind Speed Gust Speed Precip Events Conditions
12:20 AM 84.2 °F 96.1 °F 78.8 °F 84% 29.56 in - SE 3.5 mph - N/A   Haze
12:50 AM 84.2 °F 96.1 °F 78.8 °F 84% 29.53 in - Calm Calm - N/A   Haze
1:20 AM 82.4 °F 92.4 °F 78.8 °F 89% 29.53 in - SE 3.5 mph - N/A   Haze
1:50 AM 82.4 °F 92.4 °F 78.8 °F 89% 29.53 in - South 3.5 mph - N/A   Haze
2:20 AM 82.4 °F 92.4 °F 78.8 °F 89% 29.53 in - South 6.9 mph - N/A   Haze
2:30 AM 83 °F - 79 °F 83% 29.55 in 2 mi East 2.3 mph - -   Haze
2:50 AM 82.4 °F 92.4 °F 78.8 °F 89% 29.50 in - South 6.9 mph - N/A   Haze
3:20 AM 82.4 °F 92.4 °F 78.8 °F 89% 29.50 in - South 8.1 mph - N/A   Haze
3:50 AM 82.4 °F 90.9 °F 77.0 °F 84% 29.50 in - South 5.8 mph - N/A   Haze
4:20 AM 82.4 °F 90.9 °F 77.0 °F 84% 29.47 in - South 4.6 mph - N/A   Haze
4:50 AM 82.4 °F 90.9 °F 77.0 °F 84% 29.47 in - South 6.9 mph - N/A   Haze
5:20 AM 82.4 °F 90.9 °F 77.0 °F 84% 29.50 in - South 5.8 mph - N/A   Haze
5:30 AM 83 °F - 79 °F 83% 29.52 in 1 mi South 2.3 mph - -   Haze
5:50 AM 82.4 °F 90.9 °F 77.0 °F 84% 29.50 in - South 6.9 mph - N/A   Haze
6:20 AM 84.2 °F 96.1 °F 78.8 °F 84% 29.50 in 2.2 mi South 6.9 mph - N/A   Haze
6:50 AM 84.2 °F 96.1 °F 78.8 °F 84% 29.53 in 2.2 mi South 6.9 mph - N/A   Haze
7:20 AM 86.0 °F 99.3 °F 78.8 °F 79% 29.53 in 2.2 mi South 6.9 mph - N/A   Haze
7:50 AM 87.8 °F 102.5 °F 78.8 °F 75% 29.53 in 2.2 mi South 9.2 mph - N/A   Haze
8:20 AM 87.8 °F 102.5 °F 78.8 °F 75% 29.56 in 2.5 mi South 9.2 mph - N/A   Haze
8:30 AM 91 °F - 79 °F 62% 29.57 in 1 mi SSE 2.3 mph - -   Haze
8:50 AM 89.6 °F 104.7 °F 78.8 °F 70% 29.56 in 2.5 mi South 9.2 mph - N/A   Haze
9:20 AM 91.4 °F 107.2 °F 78.8 °F 66% 29.56 in 2.8 mi South 10.4 mph - N/A   Haze
10:20 AM 93.2 °F 110.2 °F 78.8 °F 63% 29.53 in 3.1 mi South 8.1 mph - N/A   Haze
10:50 AM 93.2 °F 110.2 °F 78.8 °F 63% 29.53 in 3.1 mi SSE 6.9 mph - N/A   Haze
11:20 AM 93.2 °F 110.2 °F 78.8 °F 63% 29.53 in 3.1 mi SSE 8.1 mph - N/A   Haze
11:30 AM 96 °F - 78 °F 48% 29.55 in 1 mi SSE 2.3 mph - -   Haze
11:50 AM 95.0 °F 112.2 °F 78.8 °F 59% 29.53 in 3.1 mi SSE 8.1 mph - N/A   Haze
12:20 PM 95.0 °F 112.2 °F 78.8 °F 59% 29.50 in 3.1 mi SSE 9.2 mph - N/A   Haze
12:50 PM 95.0 °F 112.2 °F 78.8 °F 59% 29.50 in 3.1 mi South 9.2 mph - N/A   Haze
1:20 PM 95.0 °F 112.2 °F 78.8 °F 59% 29.47 in 3.1 mi South 9.2 mph - N/A   Haze
1:50 PM 95.0 °F 112.2 °F 78.8 °F 59% 29.47 in 3.1 mi SSE 8.1 mph - N/A   Haze
2:20 PM 95.0 °F 112.2 °F 78.8 °F 59% 29.47 in 2.5 mi SSE 9.2 mph - N/A   Haze
2:30 PM 96 °F - 79 °F 50% 29.48 in 1 mi Calm Calm - -   Haze
2:50 PM 93.2 °F 110.2 °F 78.8 °F 63% 29.44 in 2.8 mi South 10.4 mph - N/A   Haze
3:20 PM 91.4 °F 107.2 °F 78.8 °F 66% 29.44 in 2.8 mi NW 4.6 mph - N/A   Haze
4:20 PM 87.8 °F 102.5 °F 78.8 °F 75% 29.39 in 3.1 mi SSE 6.9 mph - N/A   Haze
4:50 PM 87.8 °F 102.5 °F 78.8 °F 75% 29.39 in 3.1 mi SSE 4.6 mph - N/A   Haze
5:20 PM 87.8 °F 102.5 °F 78.8 °F 75% 29.42 in 3.1 mi SE 4.6 mph - N/A   Haze
5:30 PM 90 °F - 79 °F 63% 29.45 in 1 mi South 1.2 mph - -   Haze
5:50 PM 87.8 °F 102.5 °F 78.8 °F 75% 29.42 in 3.1 mi SSE 5.8 mph - N/A   Haze
6:20 PM 87.8 °F 102.5 °F 78.8 °F 75% 29.42 in 3.1 mi SSE 5.8 mph - N/A   Haze
6:50 PM 87.8 °F 102.5 °F 78.8 °F 75% 29.42 in 3.1 mi SSE 5.8 mph - N/A   Haze
7:20 PM 86.0 °F 99.3 °F 78.8 °F 79% 29.44 in 3.1 mi SE 3.5 mph - N/A   Haze
7:50 PM 86.0 °F 99.3 °F 78.8 °F 79% 29.44 in 3.1 mi SSE 4.6 mph - N/A   Haze
8:20 PM 86.0 °F 99.3 °F 78.8 °F 79% 29.47 in 2.8 mi South 6.9 mph - N/A   Haze
8:30 PM 88 °F - 81 °F 74% 29.48 in 1 mi Calm Calm - -   Haze
8:50 PM 86.0 °F 99.3 °F 78.8 °F 79% 29.47 in 2.5 mi South 6.9 mph - N/A   Haze
9:20 PM 86.0 °F 99.3 °F 78.8 °F 79% 29.50 in 2.2 mi South 10.4 mph - N/A   Haze
9:50 PM 86.0 °F 99.3 °F 78.8 °F 79% 29.50 in 2.2 mi South 9.2 mph - N/A   Haze
10:20 PM 84.2 °F 96.1 °F 78.8 °F 84% 29.50 in 2.2 mi South 6.9 mph - N/A   Haze
10:50 PM 84.2 °F 96.1 °F 78.8 °F 84% 29.50 in 2.2 mi South 6.9 mph - N/A   Haze
11:20 PM 84.2 °F 96.1 °F 78.8 °F 84% 29.50 in 2.2 mi SSE 6.9 mph - N/A   Haze
11:50 PM 84.2 °F 96.1 °F 78.8 °F 84% 29.50 in 2.2 mi South 6.9 mph - N/A   Haze